Location: Zagreb
(45.8000°N, 16.0000°E)
Time: 01:38:23
(UTC+02:00)

Transit 2A Rocket - Pass Details

Date: 28 January 2022
Orbit: 592 x 909 km, 66.7° (Epoch: 26 May)

Event Time Altitude Azimuth Distance (km) Brightness Sun altitude
Rises 00:50:49 0° 330° (NNW) 3,490 - -61.1°
Reaches altitude 10° 00:54:10 10° 348° (NNW) 2,505 - -60.9°
Maximum altitude 00:58:13 19° 32° (NNE) 1,876 - -60.6°
Drops below altitude 10° 01:02:04 10° 77° (ENE) 2,361 - -60.3°
Sets 01:05:05 0° 95° (E) 3,222 - -60.1°
